Regional Weather Roundup
Issued by NWS

Home | Current Version | Previous Version | Text Only | Print | Product List | Glossary On
Versions: 1 2 3 4 5 6 7 8 9 10 11 12 13 14 15 16 17 18 19 20 21 22 23 24 25 26 27 28 29 30 31 32 33 34 35 36 37 38 39 40 41 42 43 44 45 46 47 48 49 50
000
ASUS44 KMEG 260410
RWRTN
TENNESSEE HOURLY STATE WEATHER ROUNDUP
NATIONAL WEATHER SERVICE MEMPHIS TN
1100 PM CDT MON JUL 25 2016

TNZ002-004-019-021-049-052-054-088>092-260500-
WEST TENNESSEE

CITY           SKY/WX    TMP DP  RH WIND       PRES   REMARKS
MEMPHIS INTL   PTCLDY    84  75  74 E5        29.99R HX  92
NWS MEMPHIS      N/A     78 N/A N/A MISG        N/A
JACKSON        CLEAR     75  73  93 CALM      30.00R FOG
DYERSBURG      CLEAR    N/A N/A N/A MISG        N/A
UNION CITY     CLEAR     75  73  94 CALM      29.99S
PARIS          CLEAR     72  72 100 CALM      30.01S
LEXINGTON      CLEAR     73  72  94 CALM      30.00S
$$

TNZ008-025-027-028-033-062-065-066-260500-
NORTH MIDDLE TENNESSEE

CITY           SKY/WX    TMP DP  RH WIND       PRES   REMARKS
NASHVILLE      PTCLDY    82  71  69 CALM      30.01S
CLARKSVILLE    CLOUDY    73  71  93 E3        30.01R
SMYRNA         CLEAR     81  77  88 CALM      30.01S
COOKEVILLE     CLEAR     75  73  94 CALM      30.02F
CROSSVILLE     PTCLDY    73  71  93 SE3       30.10S
$$

TNZ061-075-076-078-094-096-097-260500-
SOUTH MIDDLE TENNESSEE

CITY           SKY/WX    TMP DP  RH WIND       PRES   REMARKS
FAYETTEVILLE   CLEAR     81  75  83 CALM      30.03S
TULLAHOMA      CLEAR     77  73  88 CALM      30.05R
WINCHESTER     CLEAR     75  73  94 SE3       30.03F
MCMINNVILLE    CLEAR     79  77  94 CALM      30.03F
COLUMBIA       CLEAR     81  81 100 CALM      30.00S HX  91
SHELBYVILLE    CLEAR     79  77  94 S5        30.02S
$$

TNZ017-018-042-046-047-260500-
NORTHEAST TENNESSEE

CITY           SKY/WX    TMP DP  RH WIND       PRES   REMARKS
TRI CITIES     CLOUDY    77  71  82 N3        30.08F
ELIZABETHTON   CLOUDY    75  72  88 CALM      30.08F
$$

TNZ012-013-036-069-073-074-260500-
CENTRAL EAST TENNESSEE

CITY           SKY/WX    TMP DP  RH WIND       PRES   REMARKS
KNOXVILLE      NOT AVBL
OAK RIDGE      CLOUDY    82  72  71 CALM      30.05S
GATLINBURG     MOCLDY    81  72  74 S6        30.05S
MORRISTOWN     MOCLDY    79  72  78 CALM      30.06F
$$

TNZ083-085-099-260500-
SOUTHEAST TENNESSEE

CITY           SKY/WX    TMP DP  RH WIND       PRES   REMARKS
CHATTANOOGA    MOCLDY    80  73  79 SE6       30.04R
$$

SKY/WX REPORTED AS FAIR MEANS FEW OR NO CLOUDS BELOW
12 THOUSAND FEET.




USA.gov is the U.S. government's official web portal to all federal, state and local government web resources and services.